owner,sensor,date,latitude,longitude,vertical_datum,sea_water_practical_salinity,qcFlag 
DISL,ioos:station:DISL:MHPA:1,2011-08-01T00:00:00Z,30.6671,-87.9365,3.504,0.94,1111122 
DISL,ioos:station:DISL:MHPA:1,2011-08-01T00:30:00Z,30.6671,-87.9365,3.342,0.94,1111122 
DISL,ioos:station:DISL:MHPA:1,2011-08-01T01:00:00Z,30.6671,-87.9365,3.248,0.94,1111122 
DISL,ioos:station:DISL:MHPA:1,2011-08-01T01:30:00Z,30.6671,-87.9365,3.193,0.94,1111122 
DISL,ioos:station:DISL:MHPA:1,2011-08-01T02:00:00Z,30.6671,-87.9365,3.343,0.94,1111122 
DISL,ioos:station:DISL:MHPA:1,2011-08-01T02:30:00Z,30.6671,-87.9365,3.295,0.94,1111122 
DISL,ioos:station:DISL:MHPA:1,2011-08-01T03:00:00Z,30.6671,-87.9365,3.121,0.93,1111122 
DISL,ioos:station:DISL:MHPA:1,2011-08-01T03:30:00Z,30.6671,-87.9365,2.983,0.93,1111122 
DISL,ioos:station:DISL:MHPA:1,2011-08-01T04:00:00Z,30.6671,-87.9365,2.939,0.93,1111122 
DISL,ioos:station:DISL:MHPA:1,2011-08-01T04:30:00Z,30.6671,-87.9365,2.855,0.94,1111122 
DISL,ioos:station:DISL:MHPA:1,2011-08-01T05:00:00Z,30.6671,-87.9365,2.795,0.94,1111122 
DISL,ioos:station:DISL:MHPA:1,2011-08-01T05:30:00Z,30.6671,-87.9365,2.832,0.94,1111122 
DISL,ioos:station:DISL:MHPA:1,2011-08-01T06:00:00Z,30.6671,-87.9365,2.917,0.93,1111122 
DISL,ioos:station:DISL:MHPA:1,2011-08-01T06:30:00Z,30.6671,-87.9365,3.006,0.93,1111122 
DISL,ioos:station:DISL:MHPA:1,2011-08-01T07:00:00Z,30.6671,-87.9365,3.071,0.92,1111122 
DISL,ioos:station:DISL:MHPA:1,2011-08-01T07:30:00Z,30.6671,-87.9365,3.184,0.92,1111122 
DISL,ioos:station:DISL:MHPA:1,2011-08-01T08:00:00Z,30.6671,-87.9365,3.31,0.92,1111122 
DISL,ioos:station:DISL:MHPA:1,2011-08-01T08:30:00Z,30.6671,-87.9365,3.424,0.91,1111122 
DISL,ioos:station:DISL:MHPA:1,2011-08-01T09:00:00Z,30.6671,-87.9365,3.573,0.91,1111122 
DISL,ioos:station:DISL:MHPA:1,2011-08-01T09:30:00Z,30.6671,-87.9365,3.681,0.92,1111122 
DISL,ioos:station:DISL:MHPA:1,2011-08-01T10:00:00Z,30.6671,-87.9365,3.756,0.92,1111122 
DISL,ioos:station:DISL:MHPA:1,2011-08-01T10:30:00Z,30.6671,-87.9365,3.847,0.92,1111122 
DISL,ioos:station:DISL:MHPA:1,2011-08-01T11:00:00Z,30.6671,-87.9365,3.854,0.92,1111122 
DISL,ioos:station:DISL:MHPA:1,2011-08-01T11:30:00Z,30.6671,-87.9365,3.825,0.92,1111122 
DISL,ioos:station:DISL:MHPA:1,2011-08-01T12:00:00Z,30.6671,-87.9365,3.886,0.93,1111122 
DISL,ioos:station:DISL:MHPA:1,2011-08-01T12:30:00Z,30.6671,-87.9365,3.888,0.93,1111122 
DISL,ioos:station:DISL:MHPA:1,2011-08-01T13:00:00Z,30.6671,-87.9365,3.904,0.93,1111122 
DISL,ioos:station:DISL:MHPA:1,2011-08-01T13:30:00Z,30.6671,-87.9365,3.989,0.93,1111122 
DISL,ioos:station:DISL:MHPA:1,2011-08-01T14:00:00Z,30.6671,-87.9365,4.086,0.92,1111122 
DISL,ioos:station:DISL:MHPA:1,2011-08-01T14:30:00Z,30.6671,-87.9365,4.172,0.93,1111122 
DISL,ioos:station:DISL:MHPA:1,2011-08-01T15:00:00Z,30.6671,-87.9365,4.252,0.92,1111122 
DISL,ioos:station:DISL:MHPA:1,2011-08-01T15:30:00Z,30.6671,-87.9365,4.342,0.91,1111122 
DISL,ioos:station:DISL:MHPA:1,2011-08-01T16:00:00Z,30.6671,-87.9365,4.439,0.91,1111122 
DISL,ioos:station:DISL:MHPA:1,2011-08-01T16:30:00Z,30.6671,-87.9365,4.499,0.89,1111122 
DISL,ioos:station:DISL:MHPA:1,2011-08-01T17:00:00Z,30.6671,-87.9365,4.579,0.91,1111122 
DISL,ioos:station:DISL:MHPA:1,2011-08-01T17:30:00Z,30.6671,-87.9365,4.624,0.91,1111122 
DISL,ioos:station:DISL:MHPA:1,2011-08-01T18:00:00Z,30.6671,-87.9365,4.609,0.92,1111122 
DISL,ioos:station:DISL:MHPA:1,2011-08-01T18:30:00Z,30.6671,-87.9365,4.628,0.92,1111122 
DISL,ioos:station:DISL:MHPA:1,2011-08-01T19:00:00Z,30.6671,-87.9365,4.654,0.92,1111122 
DISL,ioos:station:DISL:MHPA:1,2011-08-01T19:30:00Z,30.6671,-87.9365,4.721,0.91,1111122 
DISL,ioos:station:DISL:MHPA:1,2011-08-01T20:00:00Z,30.6671,-87.9365,4.768,0.91,1111122 
DISL,ioos:station:DISL:MHPA:1,2011-08-01T20:30:00Z,30.6671,-87.9365,4.68,0.92,1111122 
DISL,ioos:station:DISL:MHPA:1,2011-08-01T21:00:00Z,30.6671,-87.9365,4.685,0.92,1111122 
DISL,ioos:station:DISL:MHPA:1,2011-08-01T21:30:00Z,30.6671,-87.9365,4.594,0.92,1111122 
DISL,ioos:station:DISL:MHPA:1,2011-08-01T22:00:00Z,30.6671,-87.9365,4.418,0.91,1111122 
DISL,ioos:station:DISL:MHPA:1,2011-08-01T22:30:00Z,30.6671,-87.9365,4.228,0.92,1111122 
DISL,ioos:station:DISL:MHPA:1,2011-08-01T23:00:00Z,30.6671,-87.9365,4.125,0.92,1111122 
DISL,ioos:station:DISL:MHPA:1,2011-08-01T23:30:00Z,30.6671,-87.9365,4.07,0.91,1111122 
DISL,ioos:station:DISL:MHPA:1,2011-08-02T00:00:00Z,30.6671,-87.9365,3.894,0.88,1111122 
DISL,ioos:station:DISL:MHPA:1,2011-08-02T00:30:00Z,30.6671,-87.9365,3.74,0.88,1111122 
DISL,ioos:station:DISL:MHPA:1,2011-08-02T01:00:00Z,30.6671,-87.9365,3.617,0.91,1111122 
DISL,ioos:station:DISL:MHPA:1,2011-08-02T01:30:00Z,30.6671,-87.9365,3.49,0.9,1111122 
DISL,ioos:station:DISL:MHPA:1,2011-08-02T02:00:00Z,30.6671,-87.9365,3.366,0.9,1111122 
DISL,ioos:station:DISL:MHPA:1,2011-08-02T02:30:00Z,30.6671,-87.9365,3.24,0.88,1111122 
DISL,ioos:station:DISL:MHPA:1,2011-08-02T03:00:00Z,30.6671,-87.9365,3.133,0.9,1111122 
DISL,ioos:station:DISL:MHPA:1,2011-08-02T03:30:00Z,30.6671,-87.9365,3.108,0.9,1111122 
DISL,ioos:station:DISL:MHPA:1,2011-08-02T04:00:00Z,30.6671,-87.9365,3.054,0.9,1111122 
DISL,ioos:station:DISL:MHPA:1,2011-08-02T04:30:00Z,30.6671,-87.9365,3.074,0.88,1111122 
DISL,ioos:station:DISL:MHPA:1,2011-08-02T05:00:00Z,30.6671,-87.9365,3.203,0.88,1111122 
DISL,ioos:station:DISL:MHPA:1,2011-08-02T05:30:00Z,30.6671,-87.9365,3.221,0.87,1111122 
DISL,ioos:station:DISL:MHPA:1,2011-08-02T06:00:00Z,30.6671,-87.9365,3.144,0.87,1111122 
DISL,ioos:station:DISL:MHPA:1,2011-08-02T06:30:00Z,30.6671,-87.9365,3.096,0.86,1111122 
DISL,ioos:station:DISL:MHPA:1,2011-08-02T07:00:00Z,30.6671,-87.9365,3.203,0.87,1111122 
DISL,ioos:station:DISL:MHPA:1,2011-08-02T07:30:00Z,30.6671,-87.9365,3.314,0.87,1111122 
DISL,ioos:station:DISL:MHPA:1,2011-08-02T08:00:00Z,30.6671,-87.9365,3.293,0.87,1111122 
DISL,ioos:station:DISL:MHPA:1,2011-08-02T08:30:00Z,30.6671,-87.9365,3.388,0.87,1111122 
DISL,ioos:station:DISL:MHPA:1,2011-08-02T09:00:00Z,30.6671,-87.9365,3.564,0.88,1111122 
DISL,ioos:station:DISL:MHPA:1,2011-08-02T09:30:00Z,30.6671,-87.9365,3.733,0.89,1111122 
DISL,ioos:station:DISL:MHPA:1,2011-08-02T10:00:00Z,30.6671,-87.9365,3.722,0.88,1111122 
DISL,ioos:station:DISL:MHPA:1,2011-08-02T10:30:00Z,30.6671,-87.9365,3.818,0.88,1111122 
DISL,ioos:station:DISL:MHPA:1,2011-08-02T11:00:00Z,30.6671,-87.9365,3.887,0.89,1111122 
DISL,ioos:station:DISL:MHPA:1,2011-08-02T11:30:00Z,30.6671,-87.9365,3.824,0.89,1111122 
DISL,ioos:station:DISL:MHPA:1,2011-08-02T12:00:00Z,30.6671,-87.9365,3.796,0.9,1111122 
DISL,ioos:station:DISL:MHPA:1,2011-08-02T12:30:00Z,30.6671,-87.9365,3.77,0.89,1111122 
DISL,ioos:station:DISL:MHPA:1,2011-08-02T13:00:00Z,30.6671,-87.9365,3.735,0.89,1111122 
DISL,ioos:station:DISL:MHPA:1,2011-08-02T13:30:00Z,30.6671,-87.9365,3.665,0.89,1111122 
DISL,ioos:station:DISL:MHPA:1,2011-08-02T14:00:00Z,30.6671,-87.9365,3.665,0.89,1111122 
DISL,ioos:station:DISL:MHPA:1,2011-08-02T14:30:00Z,30.6671,-87.9365,3.671,0.89,1111122 
DISL,ioos:station:DISL:MHPA:1,2011-08-02T15:00:00Z,30.6671,-87.9365,3.651,0.88,1111122 
DISL,ioos:station:DISL:MHPA:1,2011-08-02T15:30:00Z,30.6671,-87.9365,3.722,0.9,1111122 
DISL,ioos:station:DISL:MHPA:1,2011-08-02T16:00:00Z,30.6671,-87.9365,3.77,0.89,1111122 
DISL,ioos:station:DISL:MHPA:1,2011-08-02T16:30:00Z,30.6671,-87.9365,3.847,0.88,1111122 
DISL,ioos:station:DISL:MHPA:1,2011-08-02T17:00:00Z,30.6671,-87.9365,4.012,0.88,1111122 
DISL,ioos:station:DISL:MHPA:1,2011-08-02T17:30:00Z,30.6671,-87.9365,4.086,0.87,1111122 
DISL,ioos:station:DISL:MHPA:1,2011-08-02T18:00:00Z,30.6671,-87.9365,4.138,0.86,1111122 
DISL,ioos:station:DISL:MHPA:1,2011-08-02T18:30:00Z,30.6671,-87.9365,4.235,0.88,1111122 
DISL,ioos:station:DISL:MHPA:1,2011-08-02T19:00:00Z,30.6671,-87.9365,4.296,0.89,1111122 
DISL,ioos:station:DISL:MHPA:1,2011-08-02T19:30:00Z,30.6671,-87.9365,4.295,0.88,1111122 
DISL,ioos:station:DISL:MHPA:1,2011-08-02T20:00:00Z,30.6671,-87.9365,4.283,0.89,1111122 
DISL,ioos:station:DISL:MHPA:1,2011-08-02T20:30:00Z,30.6671,-87.9365,4.312,0.88,1111122 
DISL,ioos:station:DISL:MHPA:1,2011-08-02T21:00:00Z,30.6671,-87.9365,4.274,0.88,1111122 
DISL,ioos:station:DISL:MHPA:1,2011-08-02T21:30:00Z,30.6671,-87.9365,4.229,0.89,1111122 
DISL,ioos:station:DISL:MHPA:1,2011-08-02T22:00:00Z,30.6671,-87.9365,4.341,0.88,1111122 
DISL,ioos:station:DISL:MHPA:1,2011-08-02T22:30:00Z,30.6671,-87.9365,4.456,0.84,1111122 
DISL,ioos:station:DISL:MHPA:1,2011-08-02T23:00:00Z,30.6671,-87.9365,4.404,0.83,1111122 
DISL,ioos:station:DISL:MHPA:1,2011-08-02T23:30:00Z,30.6671,-87.9365,4.323,0.86,1111122 
DISL,ioos:station:DISL:MHPA:1,2011-08-03T00:00:00Z,30.6671,-87.9365,4.139,0.87,1111122 
DISL,ioos:station:DISL:MHPA:1,2011-08-03T00:30:00Z,30.6671,-87.9365,3.992,0.84,1111122 
DISL,ioos:station:DISL:MHPA:1,2011-08-03T01:00:00Z,30.6671,-87.9365,3.891,0.85,1111122 
DISL,ioos:station:DISL:MHPA:1,2011-08-03T01:30:00Z,30.6671,-87.9365,3.796,0.82,1111122 
DISL,ioos:station:DISL:MHPA:1,2011-08-03T02:00:00Z,30.6671,-87.9365,3.641,0.82,1111122 
DISL,ioos:station:DISL:MHPA:1,2011-08-03T02:30:00Z,30.6671,-87.9365,3.531,0.86,1111122 
DISL,ioos:station:DISL:MHPA:1,2011-08-03T03:00:00Z,30.6671,-87.9365,3.46,0.86,1111122 
DISL,ioos:station:DISL:MHPA:1,2011-08-03T03:30:00Z,30.6671,-87.9365,3.418,0.86,1111122 
DISL,ioos:station:DISL:MHPA:1,2011-08-03T04:00:00Z,30.6671,-87.9365,3.396,0.86,1111122 
DISL,ioos:station:DISL:MHPA:1,2011-08-03T04:30:00Z,30.6671,-87.9365,3.441,0.84,1111122 
DISL,ioos:station:DISL:MHPA:1,2011-08-03T05:00:00Z,30.6671,-87.9365,3.481,0.84,1111122 
DISL,ioos:station:DISL:MHPA:1,2011-08-03T05:30:00Z,30.6671,-87.9365,3.548,0.84,1111122 
DISL,ioos:station:DISL:MHPA:1,2011-08-03T06:00:00Z,30.6671,-87.9365,3.616,0.84,1111122 
DISL,ioos:station:DISL:MHPA:1,2011-08-03T06:30:00Z,30.6671,-87.9365,3.658,0.83,1111122 
DISL,ioos:station:DISL:MHPA:1,2011-08-03T07:00:00Z,30.6671,-87.9365,3.707,0.83,1111122 
DISL,ioos:station:DISL:MHPA:1,2011-08-03T07:30:00Z,30.6671,-87.9365,3.802,0.85,1111122 
DISL,ioos:station:DISL:MHPA:1,2011-08-03T08:00:00Z,30.6671,-87.9365,3.85,0.85,1111122 
DISL,ioos:station:DISL:MHPA:1,2011-08-03T08:30:00Z,30.6671,-87.9365,3.817,0.85,1111122 
DISL,ioos:station:DISL:MHPA:1,2011-08-03T09:00:00Z,30.6671,-87.9365,3.855,0.85,1111122 
DISL,ioos:station:DISL:MHPA:1,2011-08-03T09:30:00Z,30.6671,-87.9365,3.906,0.87,1111122 
DISL,ioos:station:DISL:MHPA:1,2011-08-03T10:00:00Z,30.6671,-87.9365,3.949,0.85,1111122 
DISL,ioos:station:DISL:MHPA:1,2011-08-03T10:30:00Z,30.6671,-87.9365,3.968,0.84,1111122 
DISL,ioos:station:DISL:MHPA:1,2011-08-03T11:00:00Z,30.6671,-87.9365,3.973,0.85,1111122 
DISL,ioos:station:DISL:MHPA:1,2011-08-03T11:30:00Z,30.6671,-87.9365,3.964,0.83,1111122 
DISL,ioos:station:DISL:MHPA:1,2011-08-03T12:00:00Z,30.6671,-87.9365,3.919,0.84,1111122 
DISL,ioos:station:DISL:MHPA:1,2011-08-03T12:30:00Z,30.6671,-87.9365,3.845,0.84,1111122 
DISL,ioos:station:DISL:MHPA:1,2011-08-03T13:00:00Z,30.6671,-87.9365,3.759,0.85,1111122 
DISL,ioos:station:DISL:MHPA:1,2011-08-03T13:30:00Z,30.6671,-87.9365,3.692,0.86,1111122 
DISL,ioos:station:DISL:MHPA:1,2011-08-03T14:00:00Z,30.6671,-87.9365,3.616,0.87,1111122 
DISL,ioos:station:DISL:MHPA:1,2011-08-03T14:30:00Z,30.6671,-87.9365,3.502,0.88,1111122 
DISL,ioos:station:DISL:MHPA:1,2011-08-03T15:00:00Z,30.6671,-87.9365,3.421,0.85,1111122 
DISL,ioos:station:DISL:MHPA:1,2011-08-03T15:30:00Z,30.6671,-87.9365,3.434,0.82,1111122 
DISL,ioos:station:DISL:MHPA:1,2011-08-03T16:00:00Z,30.6671,-87.9365,3.426,0.85,1111122 
DISL,ioos:station:DISL:MHPA:1,2011-08-03T16:30:00Z,30.6671,-87.9365,3.458,0.77,1111122 
DISL,ioos:station:DISL:MHPA:1,2011-08-03T17:00:00Z,30.6671,-87.9365,3.542,0.82,1111122 
DISL,ioos:station:DISL:MHPA:1,2011-08-03T17:30:00Z,30.6671,-87.9365,3.622,0.83,1111122 
DISL,ioos:station:DISL:MHPA:1,2011-08-03T18:00:00Z,30.6671,-87.9365,3.695,0.83,1111122 
DISL,ioos:station:DISL:MHPA:1,2011-08-03T18:30:00Z,30.6671,-87.9365,3.782,0.83,1111122 
DISL,ioos:station:DISL:MHPA:1,2011-08-03T19:00:00Z,30.6671,-87.9365,3.815,0.84,1111122 
DISL,ioos:station:DISL:MHPA:1,2011-08-03T19:30:00Z,30.6671,-87.9365,3.844,0.85,1111122 
DISL,ioos:station:DISL:MHPA:1,2011-08-03T20:00:00Z,30.6671,-87.9365,3.919,0.85,1111122 
DISL,ioos:station:DISL:MHPA:1,2011-08-03T20:30:00Z,30.6671,-87.9365,3.949,0.84,1111122 
DISL,ioos:station:DISL:MHPA:1,2011-08-03T21:00:00Z,30.6671,-87.9365,3.977,0.85,1111122 
DISL,ioos:station:DISL:MHPA:1,2011-08-03T21:30:00Z,30.6671,-87.9365,4.128,0.85,1111122 
DISL,ioos:station:DISL:MHPA:1,2011-08-03T22:00:00Z,30.6671,-87.9365,4.238,0.85,1111122 
DISL,ioos:station:DISL:MHPA:1,2011-08-03T22:30:00Z,30.6671,-87.9365,4.217,0.85,1111122 
DISL,ioos:station:DISL:MHPA:1,2011-08-03T23:00:00Z,30.6671,-87.9365,4.28,0.85,1111122 
DISL,ioos:station:DISL:MHPA:1,2011-08-03T23:30:00Z,30.6671,-87.9365,4.273,0.85,1111122 
DISL,ioos:station:DISL:MHPA:1,2011-08-04T00:00:00Z,30.6671,-87.9365,4.202,0.85,1111122 
DISL,ioos:station:DISL:MHPA:1,2011-08-04T00:30:00Z,30.6671,-87.9365,4.135,0.85,1111122 
DISL,ioos:station:DISL:MHPA:1,2011-08-04T01:00:00Z,30.6671,-87.9365,4.109,0.85,1111122 
DISL,ioos:station:DISL:MHPA:1,2011-08-04T01:30:00Z,30.6671,-87.9365,4.021,0.85,1111122 
DISL,ioos:station:DISL:MHPA:1,2011-08-04T02:00:00Z,30.6671,-87.9365,3.908,0.85,1111122 
DISL,ioos:station:DISL:MHPA:1,2011-08-04T02:30:00Z,30.6671,-87.9365,3.857,0.83,1111122 
DISL,ioos:station:DISL:MHPA:1,2011-08-04T03:00:00Z,30.6671,-87.9365,3.804,0.84,1111122 
DISL,ioos:station:DISL:MHPA:1,2011-08-04T03:30:00Z,30.6671,-87.9365,3.755,0.83,1111122 
DISL,ioos:station:DISL:MHPA:1,2011-08-04T04:00:00Z,30.6671,-87.9365,3.81,0.83,1111122 
DISL,ioos:station:DISL:MHPA:1,2011-08-04T04:30:00Z,30.6671,-87.9365,3.846,0.83,1111122 
DISL,ioos:station:DISL:MHPA:1,2011-08-04T05:00:00Z,30.6671,-87.9365,3.88,0.84,1111122 
DISL,ioos:station:DISL:MHPA:1,2011-08-04T05:30:00Z,30.6671,-87.9365,3.981,0.84,1111122 
DISL,ioos:station:DISL:MHPA:1,2011-08-04T06:00:00Z,30.6671,-87.9365,4.05,0.84,1111122 
DISL,ioos:station:DISL:MHPA:1,2011-08-04T06:30:00Z,30.6671,-87.9365,4.101,0.85,1111122 
DISL,ioos:station:DISL:MHPA:1,2011-08-04T07:00:00Z,30.6671,-87.9365,4.147,0.85,1111122 
DISL,ioos:station:DISL:MHPA:1,2011-08-04T07:30:00Z,30.6671,-87.9365,4.196,0.85,1111122 
DISL,ioos:station:DISL:MHPA:1,2011-08-04T08:00:00Z,30.6671,-87.9365,4.202,0.85,1111122 
DISL,ioos:station:DISL:MHPA:1,2011-08-04T08:30:00Z,30.6671,-87.9365,4.213,0.86,1111122 
DISL,ioos:station:DISL:MHPA:1,2011-08-04T09:00:00Z,30.6671,-87.9365,4.246,0.86,1111122 
DISL,ioos:station:DISL:MHPA:1,2011-08-04T09:30:00Z,30.6671,-87.9365,4.213,0.86,1111122 
DISL,ioos:station:DISL:MHPA:1,2011-08-04T10:00:00Z,30.6671,-87.9365,4.193,0.86,1111122 
DISL,ioos:station:DISL:MHPA:1,2011-08-04T10:30:00Z,30.6671,-87.9365,4.195,0.85,1111122 
DISL,ioos:station:DISL:MHPA:1,2011-08-04T11:00:00Z,30.6671,-87.9365,4.209,0.85,1111122 
DISL,ioos:station:DISL:MHPA:1,2011-08-04T11:30:00Z,30.6671,-87.9365,4.179,0.85,1111122 
DISL,ioos:station:DISL:MHPA:1,2011-08-04T12:00:00Z,30.6671,-87.9365,4.086,0.84,1111122 
DISL,ioos:station:DISL:MHPA:1,2011-08-04T12:30:00Z,30.6671,-87.9365,3.983,0.85,1111122 
DISL,ioos:station:DISL:MHPA:1,2011-08-04T13:00:00Z,30.6671,-87.9365,3.891,0.85,1111122 
DISL,ioos:station:DISL:MHPA:1,2011-08-04T13:30:00Z,30.6671,-87.9365,3.765,0.86,1111122 
DISL,ioos:station:DISL:MHPA:1,2011-08-04T14:00:00Z,30.6671,-87.9365,3.643,0.87,1111122 
DISL,ioos:station:DISL:MHPA:1,2011-08-04T14:30:00Z,30.6671,-87.9365,3.556,0.84,1111122 
DISL,ioos:station:DISL:MHPA:1,2011-08-04T15:00:00Z,30.6671,-87.9365,3.472,0.84,1111122 
DISL,ioos:station:DISL:MHPA:1,2011-08-04T15:30:00Z,30.6671,-87.9365,3.389,0.84,1111122 
DISL,ioos:station:DISL:MHPA:1,2011-08-04T16:00:00Z,30.6671,-87.9365,3.316,0.83,1111122 
DISL,ioos:station:DISL:MHPA:1,2011-08-04T16:30:00Z,30.6671,-87.9365,3.264,0.83,1111122 
DISL,ioos:station:DISL:MHPA:1,2011-08-04T17:00:00Z,30.6671,-87.9365,3.227,0.84,1111122 
DISL,ioos:station:DISL:MHPA:1,2011-08-04T17:30:00Z,30.6671,-87.9365,3.225,0.85,1111122 
DISL,ioos:station:DISL:MHPA:1,2011-08-04T18:00:00Z,30.6671,-87.9365,3.228,0.86,1111122 
DISL,ioos:station:DISL:MHPA:1,2011-08-04T18:30:00Z,30.6671,-87.9365,3.246,0.85,1111122 
DISL,ioos:station:DISL:MHPA:1,2011-08-04T19:00:00Z,30.6671,-87.9365,3.31,0.82,1111122 
DISL,ioos:station:DISL:MHPA:1,2011-08-04T19:30:00Z,30.6671,-87.9365,3.357,0.83,1111122 
DISL,ioos:station:DISL:MHPA:1,2011-08-04T20:00:00Z,30.6671,-87.9365,3.39,0.84,1111122 
DISL,ioos:station:DISL:MHPA:1,2011-08-04T20:30:00Z,30.6671,-87.9365,3.42,0.84,1111122 
DISL,ioos:station:DISL:MHPA:1,2011-08-04T21:00:00Z,30.6671,-87.9365,3.447,0.84,1111122 
DISL,ioos:station:DISL:MHPA:1,2011-08-04T21:30:00Z,30.6671,-87.9365,3.562,0.84,1111122 
DISL,ioos:station:DISL:MHPA:1,2011-08-04T22:00:00Z,30.6671,-87.9365,3.648,0.85,1111122 
DISL,ioos:station:DISL:MHPA:1,2011-08-04T22:30:00Z,30.6671,-87.9365,3.654,0.83,1111122 
DISL,ioos:station:DISL:MHPA:1,2011-08-04T23:00:00Z,30.6671,-87.9365,3.796,0.84,1111122 
DISL,ioos:station:DISL:MHPA:1,2011-08-04T23:30:00Z,30.6671,-87.9365,3.836,0.83,1111122 
DISL,ioos:station:DISL:MHPA:1,2011-08-05T00:00:00Z,30.6671,-87.9365,3.724,0.83,1111122 
DISL,ioos:station:DISL:MHPA:1,2011-08-05T00:30:00Z,30.6671,-87.9365,3.817,0.85,1111122 
DISL,ioos:station:DISL:MHPA:1,2011-08-05T01:00:00Z,30.6671,-87.9365,3.764,0.85,1111122 
DISL,ioos:station:DISL:MHPA:1,2011-08-05T01:30:00Z,30.6671,-87.9365,3.768,0.85,1111122 
DISL,ioos:station:DISL:MHPA:1,2011-08-05T02:00:00Z,30.6671,-87.9365,3.746,0.84,1111122 
DISL,ioos:station:DISL:MHPA:1,2011-08-05T02:30:00Z,30.6671,-87.9365,3.698,0.85,1111122 
DISL,ioos:station:DISL:MHPA:1,2011-08-05T03:00:00Z,30.6671,-87.9365,3.682,0.85,1111122 
DISL,ioos:station:DISL:MHPA:1,2011-08-05T03:30:00Z,30.6671,-87.9365,3.685,0.85,1111122 
DISL,ioos:station:DISL:MHPA:1,2011-08-05T04:00:00Z,30.6671,-87.9365,3.67,0.85,1111122 
DISL,ioos:station:DISL:MHPA:1,2011-08-05T04:30:00Z,30.6671,-87.9365,3.517,0.86,1111122 
DISL,ioos:station:DISL:MHPA:1,2011-08-05T05:00:00Z,30.6671,-87.9365,3.289,0.86,1111122 
DISL,ioos:station:DISL:MHPA:1,2011-08-05T05:30:00Z,30.6671,-87.9365,3.129,0.84,1111122 
DISL,ioos:station:DISL:MHPA:1,2011-08-05T06:00:00Z,30.6671,-87.9365,3.007,0.83,1111122 
DISL,ioos:station:DISL:MHPA:1,2011-08-05T06:30:00Z,30.6671,-87.9365,2.91,0.83,1111122 
DISL,ioos:station:DISL:MHPA:1,2011-08-05T07:00:00Z,30.6671,-87.9365,2.834,0.83,1111122 
DISL,ioos:station:DISL:MHPA:1,2011-08-05T07:30:00Z,30.6671,-87.9365,3.05,0.83,1111122 
DISL,ioos:station:DISL:MHPA:1,2011-08-05T08:00:00Z,30.6671,-87.9365,3.766,0.84,1111122 
DISL,ioos:station:DISL:MHPA:1,2011-08-05T08:30:00Z,30.6671,-87.9365,3.911,0.84,1111122 
DISL,ioos:station:DISL:MHPA:1,2011-08-05T09:00:00Z,30.6671,-87.9365,3.806,0.84,1111122 
DISL,ioos:station:DISL:MHPA:1,2011-08-05T09:30:00Z,30.6671,-87.9365,3.798,0.84,1111122 
DISL,ioos:station:DISL:MHPA:1,2011-08-05T10:00:00Z,30.6671,-87.9365,3.672,0.85,1111122 
DISL,ioos:station:DISL:MHPA:1,2011-08-05T10:30:00Z,30.6671,-87.9365,3.443,0.84,1111122 
DISL,ioos:station:DISL:MHPA:1,2011-08-05T11:00:00Z,30.6671,-87.9365,3.476,0.84,1111122 
DISL,ioos:station:DISL:MHPA:1,2011-08-05T11:30:00Z,30.6671,-87.9365,3.781,0.84,1111122 
DISL,ioos:station:DISL:MHPA:1,2011-08-05T12:00:00Z,30.6671,-87.9365,3.996,0.84,1111122 
DISL,ioos:station:DISL:MHPA:1,2011-08-05T12:30:00Z,30.6671,-87.9365,4.282,0.85,1111122 
DISL,ioos:station:DISL:MHPA:1,2011-08-05T13:00:00Z,30.6671,-87.9365,4.496,0.85,1111122 
DISL,ioos:station:DISL:MHPA:1,2011-08-05T13:30:00Z,30.6671,-87.9365,4.492,0.85,1111122 
DISL,ioos:station:DISL:MHPA:1,2011-08-05T14:00:00Z,30.6671,-87.9365,4.29,0.86,1111122 
DISL,ioos:station:DISL:MHPA:1,2011-08-05T14:30:00Z,30.6671,-87.9365,4.018,0.87,1111122 
DISL,ioos:station:DISL:MHPA:1,2011-08-05T15:00:00Z,30.6671,-87.9365,3.828,0.86,1111122 
DISL,ioos:station:DISL:MHPA:1,2011-08-05T15:30:00Z,30.6671,-87.9365,3.672,0.86,1111122 
DISL,ioos:station:DISL:MHPA:1,2011-08-05T16:00:00Z,30.6671,-87.9365,3.475,0.85,1111122 
DISL,ioos:station:DISL:MHPA:1,2011-08-05T16:30:00Z,30.6671,-87.9365,3.312,0.85,1111122 
DISL,ioos:station:DISL:MHPA:1,2011-08-05T17:00:00Z,30.6671,-87.9365,3.227,0.85,1111122 
DISL,ioos:station:DISL:MHPA:1,2011-08-05T17:30:00Z,30.6671,-87.9365,3.159,0.88,1111122 
DISL,ioos:station:DISL:MHPA:1,2011-08-05T18:00:00Z,30.6671,-87.9365,3.095,0.85,1111122 
DISL,ioos:station:DISL:MHPA:1,2011-08-05T18:30:00Z,30.6671,-87.9365,3.08,0.85,1111122 
DISL,ioos:station:DISL:MHPA:1,2011-08-05T19:00:00Z,30.6671,-87.9365,3.053,0.85,1111122 
DISL,ioos:station:DISL:MHPA:1,2011-08-05T19:30:00Z,30.6671,-87.9365,3.002,0.85,1111122 
DISL,ioos:station:DISL:MHPA:1,2011-08-05T20:00:00Z,30.6671,-87.9365,2.985,0.85,1111122 
DISL,ioos:station:DISL:MHPA:1,2011-08-05T20:30:00Z,30.6671,-87.9365,2.914,0.85,1111122 
DISL,ioos:station:DISL:MHPA:1,2011-08-05T21:00:00Z,30.6671,-87.9365,2.846,0.84,1111122 
DISL,ioos:station:DISL:MHPA:1,2011-08-05T21:30:00Z,30.6671,-87.9365,2.886,0.85,1111122 
DISL,ioos:station:DISL:MHPA:1,2011-08-05T22:00:00Z,30.6671,-87.9365,2.949,0.86,1111122 
DISL,ioos:station:DISL:MHPA:1,2011-08-05T22:30:00Z,30.6671,-87.9365,2.965,0.86,1111122 
DISL,ioos:station:DISL:MHPA:1,2011-08-05T23:00:00Z,30.6671,-87.9365,2.983,0.86,1111122 
DISL,ioos:station:DISL:MHPA:1,2011-08-05T23:30:00Z,30.6671,-87.9365,3.123,0.85,1111122 
DISL,ioos:station:DISL:MHPA:1,2011-08-06T00:00:00Z,30.6671,-87.9365,3.269,0.85,1111122 
DISL,ioos:station:DISL:MHPA:1,2011-08-06T00:30:00Z,30.6671,-87.9365,3.333,0.85,1111122 
DISL,ioos:station:DISL:MHPA:1,2011-08-06T01:00:00Z,30.6671,-87.9365,3.466,0.85,1111122 
DISL,ioos:station:DISL:MHPA:1,2011-08-06T01:30:00Z,30.6671,-87.9365,3.541,0.85,1111122 
DISL,ioos:station:DISL:MHPA:1,2011-08-06T02:00:00Z,30.6671,-87.9365,3.617,0.85,1111122 
DISL,ioos:station:DISL:MHPA:1,2011-08-06T02:30:00Z,30.6671,-87.9365,3.747,0.85,1111122 
DISL,ioos:station:DISL:MHPA:1,2011-08-06T03:00:00Z,30.6671,-87.9365,3.795,0.85,1111122 
DISL,ioos:station:DISL:MHPA:1,2011-08-06T03:30:00Z,30.6671,-87.9365,3.829,0.85,1111122 
DISL,ioos:station:DISL:MHPA:1,2011-08-06T04:00:00Z,30.6671,-87.9365,3.89,0.85,1111122 
DISL,ioos:station:DISL:MHPA:1,2011-08-06T04:30:00Z,30.6671,-87.9365,3.985,0.85,1111122 
DISL,ioos:station:DISL:MHPA:1,2011-08-06T05:00:00Z,30.6671,-87.9365,4.071,0.85,1111122 
DISL,ioos:station:DISL:MHPA:1,2011-08-06T05:30:00Z,30.6671,-87.9365,4.098,0.85,1111122 
DISL,ioos:station:DISL:MHPA:1,2011-08-06T06:00:00Z,30.6671,-87.9365,4.174,0.85,1111122 
DISL,ioos:station:DISL:MHPA:1,2011-08-06T06:30:00Z,30.6671,-87.9365,4.25,0.85,1111122 
DISL,ioos:station:DISL:MHPA:1,2011-08-06T07:00:00Z,30.6671,-87.9365,4.364,0.85,1111122 
DISL,ioos:station:DISL:MHPA:1,2011-08-06T07:30:00Z,30.6671,-87.9365,4.497,0.85,1111122 
DISL,ioos:station:DISL:MHPA:1,2011-08-06T08:00:00Z,30.6671,-87.9365,4.598,0.86,1111122 
DISL,ioos:station:DISL:MHPA:1,2011-08-06T08:30:00Z,30.6671,-87.9365,4.789,0.86,1111122 
DISL,ioos:station:DISL:MHPA:1,2011-08-06T09:00:00Z,30.6671,-87.9365,4.856,0.86,1111122 
DISL,ioos:station:DISL:MHPA:1,2011-08-06T09:30:00Z,30.6671,-87.9365,4.936,0.86,1111122 
DISL,ioos:station:DISL:MHPA:1,2011-08-06T10:00:00Z,30.6671,-87.9365,4.939,0.86,1111122 
DISL,ioos:station:DISL:MHPA:1,2011-08-06T10:30:00Z,30.6671,-87.9365,4.973,0.86,1111122 
DISL,ioos:station:DISL:MHPA:1,2011-08-06T11:00:00Z,30.6671,-87.9365,4.894,0.86,1111122 
DISL,ioos:station:DISL:MHPA:1,2011-08-06T11:30:00Z,30.6671,-87.9365,4.801,0.86,1111122 
DISL,ioos:station:DISL:MHPA:1,2011-08-06T12:00:00Z,30.6671,-87.9365,4.754,0.88,1111122 
DISL,ioos:station:DISL:MHPA:1,2011-08-06T12:30:00Z,30.6671,-87.9365,4.621,0.86,1111122 
DISL,ioos:station:DISL:MHPA:1,2011-08-06T13:00:00Z,30.6671,-87.9365,4.521,0.88,1111122 
DISL,ioos:station:DISL:MHPA:1,2011-08-06T13:30:00Z,30.6671,-87.9365,4.442,0.86,1111122 
DISL,ioos:station:DISL:MHPA:1,2011-08-06T14:00:00Z,30.6671,-87.9365,4.307,0.86,1111122 
DISL,ioos:station:DISL:MHPA:1,2011-08-06T14:30:00Z,30.6671,-87.9365,4.163,0.87,1111122 
DISL,ioos:station:DISL:MHPA:1,2011-08-06T15:00:00Z,30.6671,-87.9365,4.019,0.87,1111122 
DISL,ioos:station:DISL:MHPA:1,2011-08-06T15:30:00Z,30.6671,-87.9365,3.919,0.85,1111122 